User: anonymous   Login
Location: Unspecified
(0.0000°N, 0.0000°E)
Time: 01:32:32
(UTC+01:00)
Language:

AO-40 - Orbit

View from above orbital plane
View from above orbital plane
View from above satellite
View from above satellite

Ground track
Ground track

The orbit data is extracted from the following two-line orbital elements,

1 26609U 00072B   15056.61821830 -.00000206  00000-0  00000+0 0  9996
2 26609 009.0234 006.4286 7948147 203.1333 077.4550 01.25585147 65753
Epoch (UTC): 25 February 2015 14:50:14
Eccentricity: 0.7948147
inclination: 9.0234°
perigee height: 1068 km
apogee height: 58753 km
right ascension of ascending node: 6.4286°
argument of perigee: 203.1333°
revolutions per day: 1.25585147
mean anomaly at epoch: 77.4550°
orbit number at epoch: 6575

The dashed part of the orbit path shows where the satellite is in the earth's shadow,  

DLR